Weather in Novomikhaylovka

Russia / Republic of Khakassia     53°15′10″N   91°34′03″E
temp.,
°C
wind,
m/s
gust,
m/s
humid.,
%
clouds,
%
prec.,
mm/h
press.,
hPa
HPBL,
m
8 august, mon
mon801:00+13sw11660 0.0 100911
04:00+12wsw1173100 0.0 100910
07:00+14wsw1162100 0.0 101069
10:00+21nnw1144100 0.0 1010588
13:00+26ne3229100 0.0 10081399
16:00+28ne3224100 0.0 10082028
19:00+25nne3534100 0.0 1008381
22:00+19ese2252100 0.0 100916
9 august, tue
tue901:00+17s1170100 0.0 100917
04:00+15ssw117859 0.0 100911
07:00+17sw126785 0.0 101092
10:00+23nw21415 0.0 1009812
13:00+28nne433142 0.0 10081975
16:00+28n5329100 0.0 10072074
19:00+25nne4536100 0.0 1007848
22:00+18sw11605 0.0 100711
10 august, wed
wed1001:00+16w3371100 0.0 100834
04:00+15wsw227299 0.0 100818
07:00+17w2363100 0.0 1010128
10:00+23nw334312 0.0 1009971
13:00+27n32325 0.0 10081687
16:00+29nne432895 0.0 10072470
19:00+26nne553599 0.0 1007904
22:00+18e225678 0.0 100814
11 august, thu
thu1101:00+16ene1167100 0.0 100811
04:00+16wsw1166100 0.0 100914
07:00+18wsw245587 0.0 1010180
10:00+24wnw324162 0.0 1009954
13:00+26w533750 0.0 10081583
16:00+26nnw3235100 0.0 1007880
19:00+25n3438100 0.0 1007472
22:00+21ne1152100 0.0 100811
12 august, fri
fri1201:00+18w1162100 0.0 100811
04:00+15wsw3284100 0.3 100932
07:00+16wsw2389100 1.1 1010103
10:00+18wsw358555 0.5 1011265
13:00+25sw324812 0.5 10101264
16:00+27nne223785 0.0 10082292
19:00+26nne444218 0.1 1008959
22:00+19ne2267100 0.0 100825